timestamp,wind_dir_avg,wind_spd_max_dir,wind_spd_avg,wind_spd_gust,battery_voltage,lat,long
2018-07-19 00:00:00+00:00,241.0,245.0,10.47,12.42,,47.59359,-54.27349
2018-07-19 00:10:00+00:00,238.0,240.0,10.04,11.76,,47.59359,-54.27349
2018-07-19 00:20:00+00:00,226.0,229.0,9.01,10.42,,47.59359,-54.27349
2018-07-19 00:30:00+00:00,233.0,232.0,8.69,10.22,,47.59359,-54.27349
2018-07-19 00:40:00+00:00,234.0,233.0,9.18,10.67,,47.59359,-54.27349
2018-07-19 00:50:00+00:00,229.0,229.0,12.02,13.74,,47.59359,-54.27349
2018-07-19 01:00:00+00:00,228.0,228.0,11.9,13.42,,47.59359,-54.27349
2018-07-19 01:10:00+00:00,228.0,230.0,11.06,13.63,,47.59359,-54.27349
2018-07-19 01:20:00+00:00,228.0,225.0,11.4,13.39,,47.59359,-54.27349
2018-07-19 01:30:00+00:00,229.0,236.0,11.57,13.49,,47.59359,-54.27349
2018-07-19 01:40:00+00:00,228.0,229.0,12.0,13.61,,47.59359,-54.27349
2018-07-19 01:50:00+00:00,227.0,231.0,12.69,14.01,,47.59359,-54.27349
2018-07-19 02:00:00+00:00,223.0,220.0,12.56,14.41,,47.59359,-54.27349
2018-07-19 02:10:00+00:00,224.0,222.0,11.35,12.4,,47.59359,-54.27349
2018-07-19 02:20:00+00:00,221.0,223.0,10.74,12.4,,47.59359,-54.27349
2018-07-19 02:30:00+00:00,226.0,233.0,10.73,12.05,,47.59359,-54.27349
2018-07-19 02:40:00+00:00,225.0,229.0,10.27,11.85,,47.59359,-54.27349
2018-07-19 02:50:00+00:00,230.0,229.0,11.57,12.76,,47.59359,-54.27349
2018-07-19 03:00:00+00:00,231.0,236.0,10.94,13.12,,47.59359,-54.27349
2018-07-19 03:10:00+00:00,232.0,230.0,12.16,14.11,,47.59359,-54.27349
2018-07-19 03:20:00+00:00,226.0,220.0,12.37,14.05,,47.59359,-54.27349
2018-07-19 03:30:00+00:00,227.0,226.0,11.21,12.9,,47.59359,-54.27349
2018-07-19 03:40:00+00:00,229.0,232.0,11.26,13.11,,47.59359,-54.27349
2018-07-19 03:50:00+00:00,231.0,231.0,11.89,13.9,,47.59359,-54.27349
2018-07-19 04:00:00+00:00,227.0,229.0,11.57,13.46,,47.59359,-54.27349
2018-07-19 04:10:00+00:00,221.0,224.0,10.74,12.46,,47.59359,-54.27349
2018-07-19 04:20:00+00:00,223.0,214.0,10.09,12.15,,47.59359,-54.27349
2018-07-19 04:30:00+00:00,222.0,230.0,9.75,11.94,,47.59359,-54.27349
2018-07-19 04:40:00+00:00,218.0,218.0,8.79,9.93,,47.59359,-54.27349
2018-07-19 04:50:00+00:00,219.0,219.0,9.1,10.13,,47.59359,-54.27349
2018-07-19 05:00:00+00:00,218.0,221.0,9.37,10.53,,47.59359,-54.27349
2018-07-19 05:10:00+00:00,218.0,219.0,9.36,10.2,,47.59359,-54.27349
2018-07-19 05:20:00+00:00,221.0,220.0,9.43,10.88,,47.59359,-54.27349
2018-07-19 05:30:00+00:00,224.0,227.0,9.36,11.39,,47.59359,-54.27349
2018-07-19 05:40:00+00:00,222.0,222.0,9.1,9.95,,47.59359,-54.27349
2018-07-19 05:50:00+00:00,219.0,220.0,8.68,9.35,,47.59359,-54.27349
2018-07-19 06:00:00+00:00,223.0,226.0,8.01,9.0,,47.59359,-54.27349
2018-07-19 06:10:00+00:00,224.0,222.0,8.21,9.2,,47.59359,-54.27349
2018-07-19 06:20:00+00:00,224.0,226.0,7.83,9.06,,47.59359,-54.27349
2018-07-19 06:30:00+00:00,218.0,219.0,7.4,8.14,,47.59359,-54.27349
2018-07-19 06:40:00+00:00,219.0,221.0,8.03,8.72,,47.59359,-54.27349
2018-07-19 06:50:00+00:00,222.0,223.0,7.59,8.29,,47.59359,-54.27349
2018-07-19 07:00:00+00:00,214.0,217.0,10.0,10.89,,47.59359,-54.27349
2018-07-19 07:10:00+00:00,218.0,221.0,8.81,9.41,,47.59359,-54.27349
2018-07-19 07:20:00+00:00,224.0,228.0,9.51,11.17,,47.59359,-54.27349
2018-07-19 07:30:00+00:00,216.0,217.0,8.65,9.37,,47.59359,-54.27349
2018-07-19 07:40:00+00:00,220.0,221.0,7.27,8.02,,47.59359,-54.27349
2018-07-19 07:50:00+00:00,221.0,222.0,8.84,11.17,,47.59359,-54.27349
2018-07-19 08:00:00+00:00,223.0,226.0,9.37,10.92,,47.59359,-54.27349
2018-07-19 08:10:00+00:00,222.0,216.0,9.52,10.83,,47.59359,-54.27349
2018-07-19 08:20:00+00:00,219.0,221.0,9.02,10.01,,47.59359,-54.27349
2018-07-19 08:30:00+00:00,219.0,219.0,9.22,10.39,,47.59359,-54.27349
2018-07-19 08:40:00+00:00,219.0,225.0,8.29,9.53,,47.59359,-54.27349
2018-07-19 08:50:00+00:00,218.0,218.0,8.94,9.57,,47.59359,-54.27349
2018-07-19 09:00:00+00:00,221.0,221.0,7.34,8.28,,47.59359,-54.27349
2018-07-19 09:10:00+00:00,218.0,220.0,7.93,8.81,,47.59359,-54.27349
2018-07-19 09:20:00+00:00,222.0,223.0,6.58,7.35,,47.59359,-54.27349
2018-07-19 09:30:00+00:00,216.0,217.0,9.2,10.17,,47.59359,-54.27349
2018-07-19 09:40:00+00:00,220.0,220.0,7.43,7.9,,47.59359,-54.27349
2018-07-19 09:50:00+00:00,218.0,225.0,7.93,8.44,,47.59359,-54.27349
2018-07-19 10:00:00+00:00,223.0,229.0,7.22,8.4,,47.59359,-54.27349
2018-07-19 10:10:00+00:00,232.0,231.0,7.67,9.16,,47.59359,-54.27349
2018-07-19 10:20:00+00:00,243.0,238.0,6.02,7.32,,47.59359,-54.27349
2018-07-19 10:30:00+00:00,235.0,232.0,6.52,8.03,,47.59359,-54.27349
2018-07-19 10:40:00+00:00,232.0,233.0,8.71,10.29,,47.59359,-54.27349
2018-07-19 10:50:00+00:00,224.0,228.0,9.17,10.41,,47.59359,-54.27349
2018-07-19 11:00:00+00:00,220.0,222.0,8.18,9.1,,47.59359,-54.27349
2018-07-19 11:10:00+00:00,223.0,229.0,8.98,11.0,,47.59359,-54.27349
2018-07-19 11:20:00+00:00,221.0,221.0,9.13,11.15,,47.59359,-54.27349
2018-07-19 11:30:00+00:00,220.0,224.0,8.63,9.52,,47.59359,-54.27349
2018-07-19 11:40:00+00:00,220.0,220.0,8.78,10.31,,47.59359,-54.27349
2018-07-19 11:50:00+00:00,221.0,225.0,10.68,12.66,,47.59359,-54.27349
2018-07-19 12:00:00+00:00,226.0,229.0,12.16,14.02,,47.59359,-54.27349
2018-07-19 12:10:00+00:00,225.0,225.0,10.5,12.51,,47.59359,-54.27349
2018-07-19 12:20:00+00:00,223.0,220.0,10.28,12.51,,47.59359,-54.27349
2018-07-19 12:30:00+00:00,226.0,224.0,11.65,14.11,,47.59359,-54.27349
2018-07-19 12:40:00+00:00,221.0,220.0,11.0,12.52,,47.59359,-54.27349
2018-07-19 12:50:00+00:00,229.0,227.0,11.58,13.22,,47.59359,-54.27349
2018-07-19 13:00:00+00:00,223.0,222.0,11.67,13.86,,47.59359,-54.27349
2018-07-19 13:10:00+00:00,228.0,227.0,10.55,12.42,,47.59359,-54.27349
2018-07-19 13:20:00+00:00,227.0,225.0,10.49,12.48,,47.59359,-54.27349
2018-07-19 13:30:00+00:00,222.0,221.0,11.33,12.78,,47.59359,-54.27349
2018-07-19 13:40:00+00:00,226.0,230.0,10.13,12.3,,47.59359,-54.27349
2018-07-19 13:50:00+00:00,229.0,230.0,10.59,12.45,,47.59359,-54.27349
2018-07-19 14:00:00+00:00,228.0,227.0,9.21,11.32,,47.59359,-54.27349
2018-07-19 14:10:00+00:00,226.0,231.0,9.15,10.21,,47.59359,-54.27349
2018-07-19 14:20:00+00:00,224.0,226.0,9.3,10.5,,47.59359,-54.27349
2018-07-19 14:30:00+00:00,225.0,225.0,9.51,10.73,,47.59359,-54.27349
2018-07-19 14:40:00+00:00,219.0,218.0,9.94,10.92,,47.59359,-54.27349
2018-07-19 14:50:00+00:00,224.0,224.0,7.79,8.92,,47.59359,-54.27349
2018-07-19 15:00:00+00:00,224.0,229.0,7.15,7.85,,47.59359,-54.27349
2018-07-19 15:10:00+00:00,222.0,220.0,7.21,8.96,,47.59359,-54.27349
2018-07-19 15:20:00+00:00,237.0,237.0,8.51,10.42,,47.59359,-54.27349
2018-07-19 15:30:00+00:00,237.0,238.0,7.71,8.58,,47.59359,-54.27349
2018-07-19 15:40:00+00:00,241.0,244.0,7.82,9.91,,47.59359,-54.27349
2018-07-19 15:50:00+00:00,242.0,248.0,8.97,10.81,,47.59359,-54.27349
2018-07-19 16:00:00+00:00,240.0,234.0,6.45,8.02,,47.59359,-54.27349
2018-07-19 16:10:00+00:00,260.0,249.0,4.94,6.44,,47.59359,-54.27349
2018-07-19 16:20:00+00:00,229.0,223.0,8.24,10.7,,47.59359,-54.27349
2018-07-19 16:30:00+00:00,225.0,224.0,9.07,10.04,,47.59359,-54.27349
2018-07-19 16:40:00+00:00,226.0,232.0,9.54,11.16,,47.59359,-54.27349
2018-07-19 16:50:00+00:00,224.0,226.0,9.59,10.74,,47.59359,-54.27349
2018-07-19 17:00:00+00:00,232.0,229.0,9.53,11.11,,47.59359,-54.27349
2018-07-19 17:10:00+00:00,231.0,231.0,10.18,11.82,,47.59359,-54.27349
2018-07-19 17:20:00+00:00,234.0,238.0,7.37,9.18,,47.59359,-54.27349
2018-07-19 17:30:00+00:00,232.0,240.0,8.03,9.5,,47.59359,-54.27349
2018-07-19 17:40:00+00:00,228.0,225.0,9.95,11.54,,47.59359,-54.27349
2018-07-19 17:50:00+00:00,222.0,221.0,10.06,10.98,,47.59359,-54.27349
2018-07-19 18:00:00+00:00,225.0,225.0,10.52,12.04,,47.59359,-54.27349
2018-07-19 18:10:00+00:00,223.0,227.0,9.7,11.2,,47.59359,-54.27349
2018-07-19 18:20:00+00:00,226.0,227.0,8.94,9.71,,47.59359,-54.27349
2018-07-19 18:30:00+00:00,225.0,220.0,8.83,9.98,,47.59359,-54.27349
2018-07-19 18:40:00+00:00,218.0,219.0,8.96,9.94,,47.59359,-54.27349
2018-07-19 18:50:00+00:00,223.0,226.0,7.56,8.96,,47.59359,-54.27349
2018-07-19 19:00:00+00:00,223.0,223.0,7.89,9.37,,47.59359,-54.27349
2018-07-19 19:10:00+00:00,218.0,224.0,8.19,8.9,,47.59359,-54.27349
2018-07-19 19:20:00+00:00,214.0,216.0,8.18,8.67,,47.59359,-54.27349
2018-07-19 19:30:00+00:00,219.0,223.0,8.63,9.68,,47.59359,-54.27349
2018-07-19 19:40:00+00:00,223.0,227.0,8.55,9.37,,47.59359,-54.27349
2018-07-19 19:50:00+00:00,221.0,226.0,8.25,9.2,,47.59359,-54.27349
2018-07-19 20:00:00+00:00,219.0,218.0,5.4,6.42,,47.59359,-54.27349
2018-07-19 20:10:00+00:00,217.0,220.0,7.94,8.94,,47.59359,-54.27349
2018-07-19 20:20:00+00:00,216.0,213.0,8.3,9.14,,47.59359,-54.27349
2018-07-19 20:30:00+00:00,224.0,224.0,7.84,8.9,,47.59359,-54.27349
2018-07-19 20:40:00+00:00,229.0,229.0,7.82,9.71,,47.59359,-54.27349
2018-07-19 20:50:00+00:00,228.0,227.0,5.66,6.22,,47.59359,-54.27349
2018-07-19 21:00:00+00:00,230.0,221.0,6.84,8.4,,47.59359,-54.27349
2018-07-19 21:10:00+00:00,235.0,236.0,6.25,7.9,,47.59359,-54.27349
2018-07-19 21:20:00+00:00,236.0,239.0,5.96,6.99,,47.59359,-54.27349
2018-07-19 21:30:00+00:00,219.0,224.0,5.46,6.4,,47.59359,-54.27349
2018-07-19 21:40:00+00:00,218.0,216.0,6.61,7.09,,47.59359,-54.27349
2018-07-19 21:50:00+00:00,227.0,227.0,7.37,7.93,,47.59359,-54.27349
2018-07-19 22:00:00+00:00,219.0,220.0,7.81,9.09,,47.59359,-54.27349
2018-07-19 22:10:00+00:00,219.0,224.0,6.33,7.18,,47.59359,-54.27349
2018-07-19 22:20:00+00:00,230.0,226.0,7.97,9.13,,47.59359,-54.27349
2018-07-19 22:30:00+00:00,228.0,225.0,6.43,7.94,,47.59359,-54.27349
2018-07-19 22:40:00+00:00,220.0,222.0,7.09,7.68,,47.59359,-54.27349
2018-07-19 22:50:00+00:00,225.0,215.0,7.06,9.9,,47.59359,-54.27349
2018-07-19 23:10:00+00:00,226.0,221.0,8.79,9.87,,47.59359,-54.27349
2018-07-19 23:20:00+00:00,232.0,232.0,7.69,8.4,,47.59359,-54.27349
2018-07-19 23:30:00+00:00,230.0,226.0,7.92,9.33,,47.59359,-54.27349
2018-07-19 23:40:00+00:00,226.0,220.0,7.5,8.49,,47.59359,-54.27349
2018-07-19 23:50:00+00:00,233.0,234.0,5.2,5.88,,47.59359,-54.27349
